CZ-11 R/B (46463 NORAD) Tracking and Keplerian Element Data

This shows tracking and keplerian element data for the satellite.

Feedback or suggestion? Click here.




ElementValue
Catalog46463
NameCZ-11 R/B
Epoch Orbit130
Epoch Day267.4256682
Epoch Year2020
RAAN323.4112
Inclination97.4758
Eccentricity0.0281291
Argument of Perigee286.2964
Mean Anonmoly70.7521
Mean Motion15.50502728
Decay Rate0.00055154
L11 46463U 20065K 20267.42566820 .00055154 30303-5 16655-3 0 9996
L22 46463 97.4758 323.4112 0281291 286.2964 70.7521 15.50502728 1302

Live tracking and technical data element details for CZ-11 R/B (NORAD 46463). CZ-11 R/B can be tracked NOW for your location showing map with azimuth and elevation plus other details from your city location.

Track the satellite on the map from your city or location and see movement details for azimuth, elevation, latitude, longitude, range, height, and movement on the map or in text.







IsCatalogInMostPopularTable: catalog: 46463, numindb: 1
Update: records affected: 1



GetName: 46463 CZ-11 R/B

Hit Count: updated at: Thu, 24 Sep 2020 17:12:59 GMT